Hourly Weather Otrubnevo

Today, 24 July, Saturday

Time Temperature Precipitation Wind Pressure Humidity
00:00 +14°C° 0 mm 2 mps 745 mmHg 70%
01:00 +13°C° 0 mm 2 mps 745 mmHg 73%
02:00 +12°C° 0 mm 2 mps 745 mmHg 78%
03:00 +12°C° 0 mm 2 mps 746 mmHg 79%
04:00 +12°C° 0 mm 2 mps 746 mmHg 80%
05:00 +12°C° 0 mm 2 mps 746 mmHg 81%
06:00 +13°C° 0 mm 2 mps 747 mmHg 76%
07:00 +14°C° 0 mm 2 mps 747 mmHg 72%
08:00 +15°C° 0 mm 2 mps 748 mmHg 67%
09:00 +16°C° 0 mm 2 mps 748 mmHg 61%
10:00 +17°C° 0 mm 2 mps 748 mmHg 56%
11:00 +18°C° 0 mm 2 mps 748 mmHg 51%
12:00 +19°C° 0 mm 2 mps 748 mmHg 49%
13:00 +19°C° 0 mm 2 mps 749 mmHg 47%
14:00 +19°C° 0 mm 3 mps 749 mmHg 45%
15:00 +19°C° 0 mm 2 mps 749 mmHg 45%
16:00 +19°C° 0 mm 2 mps 749 mmHg 46%
17:00 +20°C° 0 mm 1 mps 750 mmHg 46%
18:00 +19°C° 0 mm 1 mps 750 mmHg 51%
19:00 +16°C° 0 mm 1 mps 750 mmHg 55%
20:00 +15°C° 0 mm 2 mps 750 mmHg 59%
21:00 +14°C° 0 mm 2 mps 751 mmHg 62%
22:00 +14°C° 0 mm 2 mps 751 mmHg 64%
23:00 +13°C° 0 mm 2 mps 751 mmHg 66%

Tomorrow, 25 July, Sunday

Time Temperature Precipitation Wind Pressure Humidity
00:00 +13°C° 0 mm 2 mps 751 mmHg 68%
01:00 +12°C° 0 mm 2 mps 751 mmHg 70%
02:00 +12°C° 0 mm 2 mps 752 mmHg 72%
03:00 +13°C° 0 mm 2 mps 752 mmHg 69%
04:00 +14°C° 0 mm 1 mps 752 mmHg 67%
05:00 +14°C° 0 mm 1 mps 752 mmHg 64%
06:00 +16°C° 0 mm 1 mps 752 mmHg 59%
07:00 +18°C° 0 mm 1 mps 753 mmHg 55%
08:00 +20°C° 0 mm 1 mps 753 mmHg 50%
09:00 +21°C° 0 mm 1 mps 753 mmHg 45%
10:00 +21°C° 0 mm 2 mps 753 mmHg 40%
11:00 +23°C° 0 mm 2 mps 753 mmHg 35%
12:00 +24°C° 0 mm 2 mps 753 mmHg 33%
13:00 +24°C° 0 mm 2 mps 753 mmHg 32%
14:00 +25°C° 0 mm 2 mps 753 mmHg 31%
15:00 +24°C° 0 mm 2 mps 753 mmHg 36%
16:00 +24°C° 0 mm 1 mps 753 mmHg 40%
17:00 +23°C° 0 mm 1 mps 753 mmHg 45%
18:00 +22°C° 0 mm 1 mps 753 mmHg 48%
19:00 +20°C° 0 mm 1 mps 754 mmHg 51%
20:00 +19°C° 0 mm 1 mps 754 mmHg 54%
21:00 +19°C° 0 mm 1 mps 754 mmHg 54%
22:00 +19°C° 0 mm 1 mps 754 mmHg 55%
23:00 +19°C° 0 mm 1 mps 754 mmHg 55%

Day after tomorrow, 26 July, Monday

Time Temperature Precipitation Wind Pressure Humidity
00:00 +18°C° 0 mm 1 mps 754 mmHg 57%
01:00 +18°C° 0 mm 1 mps 754 mmHg 59%
02:00 +18°C° 0 mm 1 mps 755 mmHg 61%
03:00 +18°C° 0 mm 1 mps 755 mmHg 62%
04:00 +18°C° 0 mm 1 mps 755 mmHg 64%
05:00 +18°C° 0 mm 1 mps 755 mmHg 65%
06:00 +19°C° 0 mm 1 mps 755 mmHg 61%
07:00 +20°C° 0 mm 2 mps 755 mmHg 57%
08:00 +21°C° 0 mm 2 mps 755 mmHg 52%
09:00 +23°C° 0 mm 2 mps 755 mmHg 49%
10:00 +24°C° 0 mm 2 mps 755 mmHg 46%
11:00 +25°C° 0 mm 3 mps 755 mmHg 44%
12:00 +26°C° 0 mm 3 mps 755 mmHg 44%
13:00 +26°C° 0 mm 3 mps 755 mmHg 45%
14:00 +26°C° 0 mm 3 mps 755 mmHg 45%
15:00 +25°C° 0 mm 2 mps 754 mmHg 48%
16:00 +25°C° 0 mm 2 mps 754 mmHg 50%
17:00 +25°C° 0 mm 1 mps 754 mmHg 53%
18:00 +23°C° 0 mm 2 mps 754 mmHg 58%
19:00 +21°C° 0 mm 2 mps 754 mmHg 63%
20:00 +20°C° 0 mm 2 mps 754 mmHg 68%
21:00 +19°C° 0 mm 2 mps 754 mmHg 70%
22:00 +18°C° 0 mm 2 mps 754 mmHg 72%
23:00 +17°C° 0 mm 2 mps 755 mmHg 74%

27 July, Tuesday

Time Temperature Precipitation Wind Pressure Humidity
00:00 +17°C° 0 mm 2 mps 755 mmHg 77%
01:00 +16°C° 0 mm 2 mps 755 mmHg 79%
02:00 +16°C° 0 mm 2 mps 755 mmHg 81%
03:00 +16°C° 0 mm 2 mps 755 mmHg 80%
04:00 +17°C° 0 mm 2 mps 755 mmHg 78%
05:00 +17°C° 0 mm 2 mps 755 mmHg 76%
06:00 +19°C° 0 mm 2 mps 755 mmHg 68%
07:00 +23°C° 0 mm 2 mps 754 mmHg 60%
08:00 +25°C° 0 mm 2 mps 754 mmHg 52%
09:00 +26°C° 0 mm 2 mps 754 mmHg 47%
10:00 +28°C° 0 mm 2 mps 754 mmHg 42%
11:00 +29°C° 0 mm 2 mps 754 mmHg 37%
12:00 +29°C° 0 mm 2 mps 754 mmHg 38%
13:00 +28°C° 0 mm 2 mps 753 mmHg 39%
14:00 +28°C° 0 mm 2 mps 753 mmHg 41%
15:00 +28°C° 0 mm 2 mps 753 mmHg 42%
16:00 +28°C° 0 mm 2 mps 753 mmHg 42%
17:00 +27°C° 0 mm 2 mps 752 mmHg 43%
18:00 +26°C° 0 mm 1 mps 752 mmHg 49%
19:00 +24°C° 0 mm 1 mps 752 mmHg 55%
20:00 +22°C° 0 mm 1 mps 752 mmHg 61%
21:00 +21°C° 0 mm 1 mps 752 mmHg 65%
22:00 +20°C° 0 mm 1 mps 752 mmHg 70%
23:00 +18°C° 0 mm 1 mps 752 mmHg 75%

28 July, Wednesday

Time Temperature Precipitation Wind Pressure Humidity
00:00 +18°C° 0 mm 1 mps 752 mmHg 76%
01:00 +18°C° 0 mm 1 mps 752 mmHg 78%
02:00 +16°C° 0 mm 1 mps 752 mmHg 79%
03:00 +18°C° 0 mm 1 mps 752 mmHg 78%
04:00 +18°C° 0 mm 1 mps 752 mmHg 78%
05:00 +19°C° 0 mm 1 mps 751 mmHg 77%
06:00 +21°C° 0 mm 1 mps 751 mmHg 69%
07:00 +24°C° 0 mm 1 mps 751 mmHg 61%
08:00 +26°C° 0 mm 1 mps 751 mmHg 52%
09:00 +27°C° 0 mm 2 mps 750 mmHg 48%
10:00 +29°C° 0 mm 2 mps 750 mmHg 43%
11:00 +30°C° 0 mm 2 mps 750 mmHg 38%
12:00 +30°C° 0 mm 2 mps 749 mmHg 39%
13:00 +29°C° 0 mm 2 mps 749 mmHg 41%
14:00 +29°C° 0 mm 2 mps 749 mmHg 42%
15:00 +28°C° 0 mm 2 mps 748 mmHg 46%
16:00 +27°C° 0 mm 2 mps 748 mmHg 50%
17:00 +26°C° 0 mm 2 mps 748 mmHg 54%
18:00 +25°C° 0 mm 2 mps 748 mmHg 59%
19:00 +23°C° 0 mm 2 mps 747 mmHg 65%
20:00 +22°C° 0 mm 1 mps 747 mmHg 70%
21:00 +21°C° 0 mm 1 mps 747 mmHg 70%
22:00 +21°C° 0 mm 1 mps 747 mmHg 70%
23:00 +21°C° 0 mm 1 mps 746 mmHg 69%

29 July, Thursday

Time Temperature Precipitation Wind Pressure Humidity
00:00 +20°C° 0 mm 1 mps 746 mmHg 72%
01:00 +19°C° 0 mm 1 mps 746 mmHg 74%
02:00 +19°C° 0 mm 1 mps 746 mmHg 76%
03:00 +19°C° 0 mm 1 mps 746 mmHg 76%
04:00 +19°C° 0 mm 1 mps 745 mmHg 75%
05:00 +18°C° 0 mm 0 mps 745 mmHg 75%
06:00 +19°C° 0 mm 0 mps 745 mmHg 70%
07:00 +20°C° 0 mm 0 mps 745 mmHg 66%
08:00 +24°C° 0 mm 1 mps 745 mmHg 61%
09:00 +25°C° 0 mm 1 mps 745 mmHg 58%
10:00 +26°C° 0 mm 1 mps 745 mmHg 55%
11:00 +27°C° 0 mm 1 mps 745 mmHg 52%
12:00 +27°C° 0 mm 1 mps 745 mmHg 52%
13:00 +27°C° 0 mm 2 mps 745 mmHg 51%
14:00 +27°C° 0 mm 2 mps 745 mmHg 51%
15:00 +27°C° 0 mm 2 mps 744 mmHg 51%
16:00 +27°C° 0 mm 2 mps 744 mmHg 52%
17:00 +27°C° 0 mm 2 mps 744 mmHg 53%
18:00 +25°C° 0 mm 2 mps 744 mmHg 62%
19:00 +23°C° 0 mm 1 mps 744 mmHg 71%
20:00 +21°C° 0 mm 1 mps 744 mmHg 80%
21:00 +20°C° 0 mm 1 mps 744 mmHg 83%
22:00 +19°C° 0 mm 1 mps 744 mmHg 86%
23:00 +17°C° 0 mm 0 mps 744 mmHg 89%
Show more